Tracking 28790 objects as of 18-Apr-2024
HD Live streaming from Space Station
objects crossing your sky now

COSMOS 2189

Track COSMOS 2189 now!
10-day predictions
COSMOS 2189 is classified as:


NORAD ID: 21978
Int'l Code: 1992-030C
Perigee: 1,423.4 km
Apogee: 1,486.4 km
Inclination: 74.0 °
Period: 114.8 minutes
Semi major axis: 7825 km
RCS: 0.6942 m2 (medium)
Launch date: June 3, 1992
Source: Commonwealth of Independent States (former USSR) (CIS)
Launch site: PLESETSK MISSILE AND SPACE COMPLEX (PKMTR)
Your satellite tracking list
Your tracking list is empty




NASA's NSSDC Master Catalog

Two Line Element Set (TLE):
1 21978U 92030C   24108.52439191  .00000003  00000-0  11717-3 0  9993
2 21978  74.0007 143.1510 0040247 156.5976 313.8294 12.54007969459021
Source of the keplerian elements: AFSPC